Regional Weather Roundup
Issued by NWS

Home | Current Version | Previous Version | Text Only | Print | Product List | Glossary Off
Versions: 1 2 3 4 5 6 7 8 9 10 11 12 13 14 15 16 17 18 19 20 21 22 23 24 25 26 27 28 29 30 31 32 33 34 35 36 37 38 39 40 41 42 43 44 45 46 47 48 49 50

000
ASUS43 KFSD 200502
RWRSD

WEATHER ROUNDUP FOR SOUTH DAKOTA
NATIONAL WEATHER SERVICE SIOUX FALLS SD
1100 PM CST SUN NOV 19 2017

NOTE: "FAIR" INDICATES FEW OR NO CLOUDS BELOW 12,000 FEET WITH NO
SIGNIFICANT WEATHER AND/OR OBSTRUCTIONS TO VISIBILITY.


SDZ001>005-009-010-012>017-200600-
NORTHWEST AND NORTH CENTRAL SOUTH DAKOTA

CITY           SKY/WX    TMP DP  RH WIND       PRES   REMARKS
BUFFALO          N/A     35  22  58 SW6       29.58F
FAITH            N/A     35  22  58 S14       29.66F WCI  26
MOBRIDGE       CLOUDY    33  26  75 SE5       29.65F WCI  29
$$

SDZ012>016-024>037-041>051-057-063-072>074-200600-
SOUTHWEST AND SOUTH CENTRAL SOUTH DAKOTA

CITY           SKY/WX    TMP DP  RH WIND       PRES   REMARKS
RAPID CTY ARPT CLOUDY    31  16  54 E3        29.71S
PIERRE         CLOUDY    33  23  66 SE9       29.68F WCI  25
CUSTER         CLOUDY    35  12  38 W12       29.77F WCI  27
ELLSWORTH AFB  CLOUDY    34  17  49 SW3       29.69S
PHILIP         CLOUDY    28  22  78 W3        29.69F
PINE RIDGE     CLOUDY    36  14  40 W7        29.78F
SPEARFISH      FAIR      46  10  23 SW15      29.70F
WINNER         FAIR      41  21  44 SW3       29.73F
$$

SDZ004>011-016>023-039-040-200600-
NORTHEAST SOUTH DAKOTA

CITY           SKY/WX    TMP DP  RH WIND       PRES   REMARKS
ABERDEEN       CLOUDY    19  17  92 S6        29.71F WCI  11
WATERTOWN      CLOUDY    30  23  75 S9        29.72F WCI  22
BROOKINGS      CLOUDY    34  23  64 S12       29.74F WCI  25
SISSETON         N/A     33  23  66 CALM      29.71F
$$

SDZ017-020-022-023-036>040-048>070-200600-
SOUTHEAST SOUTH DAKOTA

CITY           SKY/WX    TMP DP  RH WIND       PRES   REMARKS
SIOUX FALLS    MOCLDY    41  26  55 S7        29.77F
HURON          CLOUDY    29  23  78 SE6       29.72F WCI  23
CHAMBERLAIN    CLOUDY    35  23  61 CALM      29.73F
MITCHELL       PTCLDY    34  23  64 S8        29.75F WCI  27
YANKTON        PTCLDY    42  25  50 SW9       29.79F
$$

ABBREVIATIONS USED IN REMARKS
   TC - TEMPERATURE IN CELSIUS
  WCI - WIND CHILL INDEX
   HX - HEAT INDEX
  VSB - VISIBILITY





USA.gov is the U.S. government's official web portal to all federal, state and local government web resources and services.